This is the latest recevied weather packets stored in our database for station/object WW4HG. If no packets are shown the sender has not sent any weather packets the latest 10 day(s).
| Time | Temp. | Humidity | Pressure | Rain* | Wind** | Luminosity | Snow |
|---|---|---|---|---|---|---|---|
| 1777722278 | 16.11° C | 85% | 1011.2 hPa | 0 mm | - | 27 W/m² | - |
| 1777721975 | 16.11° C | 85% | 1011.2 hPa | 0 mm | - | 28 W/m² | - |
| 1777721673 | 16.11° C | 85% | 1011.2 hPa | 0 mm | - | 20 W/m² | - |
| 1777721371 | 16.11° C | 85% | 1011.2 hPa | 0 mm | - | 10 W/m² | - |
| 1777721068 | 16.67° C | 85% | 1011.2 hPa | 0 mm | - | 13 W/m² | - |
| 1777720766 | 16.67° C | 84% | 1011.2 hPa | 0 mm | - | 9 W/m² | - |
| 1777720462 | 16.67° C | 84% | 1011.2 hPa | 0 mm | - | 4 W/m² | - |
| 1777720160 | 16.67° C | 84% | 1011.2 hPa | 0 mm | - | 4 W/m² | - |
| 1777719858 | 16.67° C | 84% | 1011.9 hPa | 1.78 mm | - | 5 W/m² | - |
| 1777719555 | 16.67° C | 84% | 1011.9 hPa | 1.78 mm | - | 5 W/m² | - |
| 1777719252 | 16.11° C | 84% | 1011.9 hPa | 0 mm | - | 6 W/m² | - |
| 1777718949 | 16.11° C | 84% | 1011.9 hPa | 1.78 mm | - | 3 W/m² | - |
| 1777718646 | 16.11° C | 84% | 1012.3 hPa | 1.78 mm | - | 4 W/m² | - |
| 1777718344 | 16.11° C | 83% | 1012.3 hPa | 0 mm | - | 3 W/m² | - |
| 1777718041 | 16.11° C | 83% | 1011.9 hPa | 1.78 mm | - | 3 W/m² | - |
| 1777717738 | 16.11° C | 83% | 1012.3 hPa | 1.78 mm | - | 2 W/m² | - |
| 1777717435 | 16.11° C | 83% | 1012.3 hPa | 1.78 mm | - | 1 W/m² | - |
| 1777717132 | 16.11° C | 84% | 1012.3 hPa | 1.78 mm | - | 1 W/m² | - |
| 1777716830 | 16.11° C | 84% | 1012.3 hPa | 1.78 mm | - | 1 W/m² | - |
| 1777716528 | 16.11° C | 84% | 1012.3 hPa | 3.56 mm | - | 1 W/m² | - |
| 1777716227 | 16.11° C | 83% | 1012.6 hPa | 3.56 mm | - | 1 W/m² | - |
| 1777715924 | 16.67° C | 83% | 1012.6 hPa | 3.56 mm | - | 1 W/m² | - |
| 1777715622 | 16.67° C | 83% | 1012.6 hPa | 3.56 mm | - | 1 W/m² | - |
| 1777715320 | 16.67° C | 83% | 1012.3 hPa | 3.56 mm | - | 1 W/m² | - |
| 1777715017 | 16.67° C | 83% | 1012.6 hPa | 1.78 mm | - | 1 W/m² | - |
* Rain latest hour (hover to see other rain measurements)
** Current wind speed in m/s (hover to see current wind gust speed)